Location: Unspecified
(0.0000°N, 0.0000°E)
Time: 23:07:21
(UTC+00:00)

Tiangong - Pass Details

Date: 01 May 2025
Orbit: 377 x 386 km, 41.5° (Epoch: 16 May)

Event Time Altitude Azimuth Distance (km) Brightness Sun altitude
Exits shadow 05:00:15 - 193° (SSW) 1,550 0.6 -13.7°
Reaches altitude 10° 05:00:40 10° 188° (S) 1,416 0.5 -13.6°
Maximum altitude 05:03:10 21° 137° (SE) 934 0.1 -13.0°
Drops below altitude 10° 05:05:41 10° 85° (E) 1,411 2.2 -12.4°
Sets 05:08:03 0° 68° (ENE) 2,262 3.8 -11.8°
